SL-16 DEB, 24300

Orbit data source: Space-Track

SL-16 DEB, 24300 is space debris in LEO originally from a launch on Wed, 04 Sep 1996 UTC launched from the Tyuratam Missile And Space Complex (TTMTR). Debris objects in space refer to the collection of defunct objects orbiting the Earth. Examples of debris include non-operational satellites, rocket bodies, and fragments generated from explosions, collisions, or faulty payload assembly.

Loading next visibility...
Identifier
24300, 1996-051D
Orbit
LEO
Country
Flag of CISCIS
Related business
Manufacturer
Yuzhnoe
Mission
Spacecraft
Bus & Motor
SEP MOTOR COVER, Unknown motor
Mass
~0 kg wet, ~1 kg dry
Launch date (UTC)
1996-09-04 (30 years ago)
Launch vehicle
Unknown
Launch site
Tyuratam Missile And Space Complex (TTMTR)
Object type
Payload
Rocket body
Debris
Shape & HBR
Unknown shape, 0.1 m
Radar Cross Section
Medium (>0.1 m² and <1 m²)

Expand to show TLE details & history
Last TLE update: 2 days ago

TLE from 2 days ago
0 SL-16 DEB
1 24300U 96051D   26171.29651500  .00000100  00000-0  12970-3 0  9998
2 24300  71.0273 105.6538 0193101  81.5162  73.0543 13.74783635493710
Epoch: 2026-06-20T07:06Z
TLE epoch observation values (Epoch: 2026-06-20T07:06:58.896Z)
Latitude
21.98744°
Longitude
-97.54207°
Altitude
945.681 km
Speed
7.401 km/s
True Right ascension
18h 30m 51s
True Declination
21° 52' 17"
Sunlit
Object was in full shadow at epoch
Visualization orbit readout
Latitude
Unknown
Longitude
Unknown
Altitude
Unknown
Speed
Unknown
Apparent Right ascension
Unknown
Apparent Declination
Unknown
Sunlit
N/A
Visualization observer readout
Local Sidereal Time
23:20:22
Azimuth
Unknown
Elevation
Unknown
Doppler factor
Unknown
Orbital elements
Apogee altitude
1,122.502 km
Perigee altitude
838.314 km
Semi-major axis
7,358.545 km
Eccentricity
0.01931
Inclination
71.0273°
RAAN
105.6538°
Arg. of periapsis
81.5162°
True anomaly
75.1855°
Mean anomaly
73.0543°
Eccentric anomaly
74.11846°
Mean motion
3.43839 °/min
Orbital period
104.7 mins
BSTAR
0.0001297
Loading maneuver chart data...
Computing Atmospheric mass density...
Loading historical data...
Loading historical data...
Loading historical data...
Loading historical data...
Loading historical data...
Loading historical data...
Loading historical data...

Documentation

Showing up to 5 results
|